"SCET";"TARGET";"ELECTRON_DENSITY";"ERROR_FLAG";"ELECTRON_DENSITY_ERROR";"FREQ_FCE";"MEASURED_VALUE";"MEASURED_ITEM";"FREQ_PLASMA";"FREQ_UPPER_HYBRID";"FREQ_R_EQUALS_ZERO";"FREQ_L_EQUALS_ZERO";"ORBIT_NUMBER";"SATURN_RADIUS";"SATURN_IAU_LONGITUDE";"SATURN_SLS4_S_LONGITUDE";"SATURN_SLS4_N_LONGITUDE";"SATURN_SLS5_S_LONGITUDE";"SATURN_SLS5_N_LONGITUDE";"SATURN_LOCAL_TIME";"SATURN_KRONOGRAPHIC_LATITUDE";"SATURN_MAGNETIC_LATITUDE";"SATURN_L";"SATURN_L_OFFSET";"SATURN_SOLAR_EQUATORIAL_X";"SATURN_SOLAR_EQUATORIAL_Y";"SATURN_SOLAR_EQUATORIAL_Z";"SATURN_ALTITUDE";"ENCELADUS_ENCOUNTER_NUMBER";"ENCELADUS_RADIUS";"ENCELADUS_COROTATIONAL_X";"ENCELADUS_COROTATIONAL_Y";"ENCELADUS_COROTATIONAL_Z";"ENCELADUS_TRUE_ANOMALY";"ENCELADUS_PERIAPSIS_TIME";"JUPITER_RADIUS";"JUPITER_SYSTEMIII_LONGITUDE";"JUPITER_MAGNETIC_LATITUDE";"JUPITER_MAGNETIC_LOCAL_TIME";"JUPITER_L";"IO_PHASE";"EARTH_RADIUS";"EARTH_MAGNETIC_LATITUDE";"EARTH_LOCAL_TIME";"EARTH_L"
"[UTC]";"[0=Saturn, 1=Enceladus, 2=Jupiter, 3=Earth]";"[cm-3]";"[0=automated, 1=manual]";"[normalized density error]";"[Hz]";"[Hz]";"[0=upper hybrid frequency, 1=plasma frequency cutoff]";"[Hz]";"[Hz]";"[Hz]";"[Hz}";"[0, A, B, C, 3, 4, ... , 292, 293]";"[Rs where 1Rs=60268km]";"[degrees]";"[degrees]";"[degrees]";"[degrees]";"[degrees]";"[hours]";"[degrees]";"[degrees where offset=2293km north]";"[Rs where 1Rs=60268km]";"[Rs where 1Rs=60268km and offset=2293km north]";"[Rs where 1Rs=60268km]";"[Rs where 1Rs=60268km]";"[Rs where 1Rs=60268km]";"[km where ellipsoid a,b=60268km and c=54364km]";"[E0, E1, E2, ... , E21, E22]";"[Renc where 1Renc=252.1km]";"[Renc where 1Renc=252.1km]";"[Renc where 1Renc=252.1km]";"[Renc where 1Renc=252.1km]";"[degrees]";"[UTC]";"[Rj where 1Rj=71492km]";"[degrees]";"[degrees using JRM09 model]";"[hours using JRM09 model]";"[Rj where 1Rj=71492km]";"[degrees]";"[Re where 1Re=6378.1366km]";"[degrees]";"[hours]";"[Re where 1Re=6378.1366km]"
2017-07-12T20:05:34.947Z;0;5.9810e-01;1;     0.368;355678.219;   6945.025; 1;   6945.025; 355746.031; 355813.781;    135.558;283;   1.414; 254.978;;; 345.743; 198.187;   9.623;  47.170;  46.102;   3.060;   1.385;   0.781;  -0.560;   1.037;28251.322;;;;;;;;;;;;;;;;;
2017-07-12T20:05:50.946Z;0;6.3700e-01;1;     0.374;355678.219;   7167.365; 1;   7167.365; 355750.438; 355822.594;    144.373;283;   1.410; 254.854;;; 345.618; 198.060;   9.641;  46.976;  45.900;   3.029;   1.381;   0.785;  -0.557;   1.031;28002.887;;;;;;;;;;;;;;;;;
2017-07-12T20:06:06.946Z;0;5.9810e-01;1;     0.368;362952.125;   6945.025; 1;   6945.025; 363018.562; 363084.969;    132.843;283;   1.406; 254.731;;; 345.494; 197.933;   9.659;  46.779;  45.697;   2.999;   1.378;   0.788;  -0.554;   1.025;27754.805;;;;;;;;;;;;;;;;;
2017-07-12T20:06:54.946Z;0;6.3700e-01;1;     0.562;362952.125;   7167.365; 1;   7167.365; 363022.906; 363093.625;    141.482;283;   1.395; 254.364;;; 345.123; 197.554;   9.714;  46.179;  45.076;   2.910;   1.367;   0.798;  -0.544;   1.006;27012.850;;;;;;;;;;;;;;;;;
2017-07-12T20:07:10.946Z;0;6.1730e-01;1;     0.380;370149.594;   7055.319; 1;   7055.319; 370216.812; 370284.000;    134.431;283;   1.391; 254.243;;; 345.000; 197.428;   9.732;  45.976;  44.865;   2.881;   1.363;   0.801;  -0.541;   1.000;26766.320;;;;;;;;;;;;;;;;;
2017-07-12T20:07:26.946Z;0;6.1730e-01;1;     0.380;370149.594;   7055.319; 1;   7055.319; 370216.812; 370284.000;    134.431;283;   1.388; 254.122;;; 344.877; 197.303;   9.750;  45.770;  44.653;   2.852;   1.359;   0.805;  -0.538;   0.994;26520.201;;;;;;;;;;;;;;;;;
2017-07-12T20:08:14.945Z;0;5.9810e-01;1;     0.553;377252.875;   6945.025; 1;   6945.025; 377316.812; 377380.688;    127.811;283;   1.376; 253.764;;; 344.512; 196.929;   9.804;  45.144;  44.005;   2.767;   1.349;   0.815;  -0.528;   0.976;25784.391;;;;;;;;;;;;;;;;;
2017-07-12T20:08:30.945Z;0;6.5740e-01;1;     0.368;377252.875;   7281.191; 1;   7281.191; 377323.156; 377393.375;    140.479;283;   1.373; 253.645;;; 344.391; 196.805;   9.822;  44.932;  43.785;   2.739;   1.345;   0.818;  -0.525;   0.969;25539.988;;;;;;;;;;;;;;;;;
2017-07-12T20:08:46.945Z;0;6.5740e-01;1;     0.368;377252.875;   7281.191; 1;   7281.191; 377323.156; 377393.375;    140.479;283;   1.369; 253.527;;; 344.270; 196.682;   9.840;  44.718;  43.564;   2.711;   1.341;   0.821;  -0.521;   0.963;25296.039;;;;;;;;;;;;;;;;;
2017-07-12T20:09:02.945Z;0;5.9810e-01;1;     0.368;384229.188;   6945.025; 1;   6945.025; 384291.938; 384354.656;    125.492;283;   1.365; 253.410;;; 344.149; 196.559;   9.857;  44.502;  43.341;   2.684;   1.338;   0.825;  -0.518;   0.957;25052.549;;;;;;;;;;;;;;;;;
2017-07-12T20:09:34.410Z;0;5.7960e-01;1;     0.374;384229.188;   6836.454; 1;   6836.454; 384290.000; 384350.781;    121.600;283;   1.358; 253.180;;; 343.914; 196.318;   9.892;  44.072;  42.896;   2.631;   1.331;   0.831;  -0.511;   0.945;24575.090;;;;;;;;;;;;;;;;;
2017-07-12T20:09:50.945Z;0;6.1730e-01;1;     0.571;384229.188;   7055.319; 1;   7055.319; 384293.938; 384358.688;    129.508;283;   1.354; 253.061;;; 343.790; 196.192;   9.911;  43.843;  42.660;   2.604;   1.327;   0.834;  -0.508;   0.938;24324.934;;;;;;;;;;;;;;;;;
2017-07-12T20:10:22.409Z;0;3.5010e-01;1;     0.572;391045.844;   5313.062; 1;   5313.062; 391081.938; 391118.000;     72.174;283;   1.347; 252.835;;; 343.562; 195.960;   9.946;  43.402;  42.204;   2.552;   1.320;   0.841;  -0.501;   0.926;23850.398;;;;;;;;;;;;;;;;;
2017-07-12T20:10:54.944Z;0;2.8080e-01;1;     0.369;391045.844;   4758.223; 1;   4758.223; 391074.781; 391103.719;     57.889;283;   1.340; 252.603;;; 343.329; 195.725;   9.981;  42.939;  41.725;   2.500;   1.313;   0.847;  -0.495;   0.913;23361.816;;;;;;;;;;;;;;;;;
2017-07-12T20:11:10.944Z;0;2.8970e-01;1;     0.381;397676.500;   4833.788; 1;   4833.788; 397705.875; 397735.250;     58.746;283;   1.336; 252.490;;; 343.216; 195.611;   9.999;  42.709;  41.487;   2.475;   1.310;   0.850;  -0.491;   0.906;23122.352;;;;;;;;;;;;;;;;;
2017-07-12T20:11:26.944Z;0;2.8970e-01;1;     0.572;397676.500;   4833.788; 1;   4833.788; 397705.875; 397735.250;     58.746;283;   1.333; 252.378;;; 343.103; 195.497;  10.016;  42.476;  41.247;   2.450;   1.306;   0.853;  -0.488;   0.900;22883.438;;;;;;;;;;;;;;;;;
2017-07-12T20:11:58.944Z;0;2.8970e-01;1;     0.381;397676.500;   4833.788; 1;   4833.788; 397705.875; 397735.250;     58.746;283;   1.326; 252.155;;; 342.879; 195.271;  10.051;  42.006;  40.761;   2.401;   1.299;   0.860;  -0.481;   0.887;22407.295;;;;;;;;;;;;;;;;;
2017-07-12T20:12:14.944Z;0;2.7210e-01;1;     0.187;404088.750;   4683.838; 1;   4683.838; 404115.906; 404143.031;     54.284;283;   1.322; 252.044;;; 342.767; 195.159;  10.069;  41.768;  40.515;   2.377;   1.296;   0.863;  -0.478;   0.881;22170.090;;;;;;;;;;;;;;;;;
2017-07-12T20:12:46.944Z;0;2.8080e-01;1;     0.369;404088.750;   4758.223; 1;   4758.223; 404116.781; 404144.781;     56.021;283;   1.315; 251.824;;; 342.546; 194.936;  10.103;  41.286;  40.017;   2.329;   1.289;   0.869;  -0.471;   0.868;21697.467;;;;;;;;;;;;;;;;;
2017-07-12T20:13:02.944Z;0;2.8970e-01;1;     0.381;410235.750;   4833.788; 1;   4833.788; 410264.250; 410292.719;     56.948;283;   1.312; 251.715;;; 342.437; 194.826;  10.121;  41.043;  39.765;   2.306;   1.286;   0.872;  -0.467;   0.861;21462.070;;;;;;;;;;;;;;;;;
2017-07-12T20:13:18.944Z;0;2.8970e-01;1;     0.381;410235.750;   4833.788; 1;   4833.788; 410264.250; 410292.719;     56.948;283;   1.308; 251.606;;; 342.328; 194.717;  10.138;  40.797;  39.512;   2.282;   1.282;   0.875;  -0.464;   0.855;21227.301;;;;;;;;;;;;;;;;;
2017-07-12T20:13:50.943Z;0;2.7210e-01;1;     0.187;410235.750;   4683.838; 1;   4683.838; 410262.500; 410289.250;     53.470;283;   1.301; 251.391;;; 342.111; 194.499;  10.172;  40.300;  38.999;   2.237;   1.276;   0.881;  -0.457;   0.841;20759.703;;;;;;;;;;;;;;;;;
2017-07-12T20:14:06.408Z;0;2.5540e-01;1;     0.184;416111.281;   4538.540; 1;   4538.540; 416136.031; 416160.781;     49.496;283;   1.298; 251.287;;; 342.007; 194.395;  10.189;  40.058;  38.748;   2.215;   1.272;   0.884;  -0.453;   0.835;20534.660;;;;;;;;;;;;;;;;;
2017-07-12T20:15:10.943Z;0;4.9510e-01;1;     0.554;421673.469;   6318.537; 1;   6318.537; 421720.812; 421768.125;     94.658;283;   1.284; 250.861;;; 341.579; 193.966;  10.258;  39.025;  37.681;   2.128;   1.259;   0.896;  -0.439;   0.808;19602.486;;;;;;;;;;;;;;;;;
2017-07-12T20:15:42.943Z;0;4.0980e-01;1;     0.740;421673.469;   5748.563; 1;   5748.563; 421712.656; 421751.812;     78.354;283;   1.277; 250.653;;; 341.370; 193.758;  10.292;  38.501;  37.141;   2.086;   1.253;   0.901;  -0.432;   0.795;19144.594;;;;;;;;;;;;;;;;;
2017-07-12T20:15:58.942Z;0;4.0980e-01;1;     0.554;421673.469;   5748.563; 1;   5748.563; 421712.656; 421751.812;     78.354;283;   1.274; 250.550;;; 341.266; 193.654;  10.308;  38.236;  36.867;   2.065;   1.250;   0.904;  -0.429;   0.788;18916.785;;;;;;;;;;;;;;;;;
2017-07-12T20:16:14.942Z;0;4.2290e-01;1;     0.380;426918.312;   5839.856; 1;   5839.856; 426958.250; 426998.156;     79.869;283;   1.271; 250.447;;; 341.163; 193.551;  10.325;  37.969;  36.592;   2.045;   1.246;   0.907;  -0.425;   0.782;18689.730;;;;;;;;;;;;;;;;;
2017-07-12T20:16:30.942Z;0;4.5040e-01;1;     0.184;426918.312;   6026.816; 1;   6026.816; 426960.844; 427003.375;     85.064;283;   1.267; 250.345;;; 341.060; 193.449;  10.342;  37.701;  36.315;   2.024;   1.243;   0.910;  -0.422;   0.775;18463.457;;;;;;;;;;;;;;;;;
2017-07-12T20:16:46.942Z;0;4.5040e-01;1;     0.184;426918.312;   6026.816; 1;   6026.816; 426960.844; 427003.375;     85.064;283;   1.264; 250.243;;; 340.958; 193.347;  10.359;  37.430;  36.036;   2.005;   1.240;   0.913;  -0.418;   0.768;18237.979;;;;;;;;;;;;;;;;;
2017-07-12T20:17:02.942Z;0;4.6480e-01;1;     0.190;431815.969;   6122.528; 1;   6122.528; 431859.375; 431902.750;     86.791;283;   1.261; 250.142;;; 340.857; 193.246;  10.376;  37.157;  35.754;   1.985;   1.237;   0.915;  -0.414;   0.761;18013.311;;;;;;;;;;;;;;;;;
2017-07-12T20:17:18.942Z;0;4.3650e-01;1;     0.187;431815.969;   5932.600; 1;   5932.600; 431856.719; 431897.469;     81.491;283;   1.257; 250.042;;; 340.756; 193.146;  10.392;  36.883;  35.471;   1.965;   1.234;   0.918;  -0.411;   0.755;17789.469;;;;;;;;;;;;;;;;;
2017-07-12T20:18:22.942Z;0;5.7200e+00;1;     0.739;436325.062;  21476.285; 1;  21476.285; 436853.281; 437379.594;   1054.532;283;   1.245; 249.644;;; 340.357; 192.750;  10.459;  35.764;  34.318;   1.890;   1.222;   0.929;  -0.396;   0.727;16902.646;;;;;;;;;;;;;;;;;
2017-07-12T20:18:38.406Z;0;5.7200e+00;1;     0.739;436325.062;  21476.285; 1;  21476.285; 436853.281; 437379.594;   1054.532;283;   1.242; 249.549;;; 340.262; 192.656;  10.475;  35.490;  34.035;   1.873;   1.219;   0.931;  -0.393;   0.721;16690.494;;;;;;;;;;;;;;;;;
2017-07-12T20:18:54.941Z;0;6.7990e+00;1;     0.557;436325.062;  23415.609; 1;  23415.609; 436952.906; 437578.094;   1253.012;283;   1.238; 249.449;;; 340.161; 192.556;  10.492;  35.194;  33.730;   1.854;   1.216;   0.934;  -0.389;   0.714;16464.598;;;;;;;;;;;;;;;;;
2017-07-12T20:19:10.941Z;0;7.9100e+00;1;     0.567;440406.812;  25255.645; 1;  25255.645; 441130.375; 441850.375;   1443.583;283;   1.235; 249.351;;; 340.064; 192.460;  10.508;  34.905;  33.432;   1.836;   1.213;   0.937;  -0.386;   0.707;16246.960;;;;;;;;;;;;;;;;;
2017-07-12T20:19:26.941Z;0;8.2590e+00;1;     0.555;440406.812;  25807.447; 1;  25807.447; 441162.312; 441913.938;   1507.136;283;   1.232; 249.255;;; 339.967; 192.364;  10.525;  34.615;  33.133;   1.819;   1.210;   0.939;  -0.382;   0.700;16030.272;;;;;;;;;;;;;;;;;
2017-07-12T20:19:42.941Z;0;9.4030e+00;1;     0.764;440406.812;  27536.248; 1;  27536.248; 441266.812; 442121.812;   1715.014;283;   1.229; 249.159;;; 339.871; 192.269;  10.541;  34.322;  32.832;   1.802;   1.207;   0.942;  -0.378;   0.693;15814.553;;;;;;;;;;;;;;;;;
2017-07-12T20:19:58.406Z;0;9.4030e+00;1;     0.190;440406.812;  27536.248; 1;  27536.248; 441266.812; 442121.812;   1715.014;283;   1.226; 249.066;;; 339.778; 192.178;  10.557;  34.038;  32.539;   1.785;   1.204;   0.944;  -0.375;   0.686;15606.982;;;;;;;;;;;;;;;;;
2017-07-12T20:20:30.941Z;0;1.3000e+01;1;     0.373;444045.781;  32382.029; 1;  32382.029; 445224.969; 446394.812;   2349.032;283;   1.220; 248.873;;; 339.583; 191.980;  10.590;  33.433;  31.916;   1.751;   1.198;   0.949;  -0.367;   0.672;15173.371;;;;;;;;;;;;;;;;;
2017-07-12T20:20:46.941Z;0;1.3120e+01;1;     0.185;444045.781;  32529.371; 1;  32529.371; 445235.688; 446416.125;   2370.344;283;   1.217; 248.779;;; 339.487; 191.883;  10.607;  33.132;  31.606;   1.735;   1.195;   0.952;  -0.363;   0.665;14961.693;;;;;;;;;;;;;;;;;
2017-07-12T20:21:02.941Z;0;1.3000e+01;1;     0.748;447217.094;  32382.029; 1;  32382.029; 448387.906; 449549.656;   2332.547;283;   1.214; 248.685;;; 339.392; 191.786;  10.623;  32.830;  31.295;   1.719;   1.192;   0.954;  -0.360;   0.658;14751.071;;;;;;;;;;;;;;;;;
2017-07-12T20:21:18.405Z;0;1.6850e+01;1;     0.566;447217.094;  36865.789; 1;  36865.789; 448734.000; 450235.719;   3018.611;283;   1.211; 248.595;;; 339.301; 191.693;  10.639;  32.536;  30.992;   1.704;   1.190;   0.957;  -0.356;   0.651;14548.525;;;;;;;;;;;;;;;;;
2017-07-12T20:21:34.405Z;0;1.9610e+01;1;     0.384;447217.094;  39762.762; 1;  39762.762; 448981.312; 450724.938;   3507.854;283;   1.208; 248.502;;; 339.206; 191.597;  10.655;  32.229;  30.677;   1.688;   1.187;   0.959;  -0.352;   0.644;14340.032;;;;;;;;;;;;;;;;;
2017-07-12T20:21:50.405Z;0;2.1840e+01;1;     0.190;447217.094;  41970.387; 1;  41970.387; 449182.188; 451121.844;   3904.740;283;   1.205; 248.410;;; 339.113; 191.502;  10.671;  31.921;  30.360;   1.672;   1.184;   0.961;  -0.349;   0.637;14132.648;;;;;;;;;;;;;;;;;
2017-07-12T20:22:06.405Z;0;2.3310e+01;1;     0.184;449890.906;  43353.367; 1;  43353.367; 451974.938; 454030.531;   4139.622;283;   1.202; 248.318;;; 339.020; 191.407;  10.687;  31.611;  30.041;   1.657;   1.181;   0.964;  -0.345;   0.630;13926.394;;;;;;;;;;;;;;;;;
2017-07-12T20:22:22.940Z;0;3.2940e+01;1;     0.187;449890.906;  51536.559; 1;  51536.559; 452833.125; 455719.094;   5828.189;283;   1.199; 248.223;;; 338.924; 191.309;  10.704;  31.288;  29.709;   1.642;   1.178;   0.966;  -0.341;   0.623;13714.448;;;;;;;;;;;;;;;;;
2017-07-12T20:22:38.405Z;0;3.4390e+01;1;     0.384;449890.906;  52662.562; 1;  52662.562; 452962.656; 455973.156;   6082.256;283;   1.196; 248.135;;; 338.834; 191.218;  10.719;  30.984;  29.396;   1.627;   1.176;   0.968;  -0.337;   0.616;13517.348;;;;;;;;;;;;;;;;;
2017-07-12T20:22:54.940Z;0;3.0210e+01;1;     0.373;449890.906;  49356.266; 1;  49356.266; 452590.188; 455242.000;   5351.090;283;   1.193; 248.041;;; 338.740; 191.121;  10.736;  30.657;  29.060;   1.612;   1.173;   0.971;  -0.333;   0.608;13307.837;;;;;;;;;;;;;;;;;
2017-07-12T20:23:10.940Z;0;4.0880e+01;1;     0.184;452063.812;  57418.031; 1;  57418.031; 455695.625; 459242.656;   7178.842;283;   1.190; 247.951;;; 338.648; 191.027;  10.752;  30.339;  28.733;   1.598;   1.170;   0.973;  -0.330;   0.601;13106.333;;;;;;;;;;;;;;;;;
2017-07-12T20:23:26.404Z;0;4.6540e+01;1;     0.380;452063.812;  61264.379; 1;  61264.379; 456196.219; 460219.312;   8155.512;283;   1.188; 247.864;;; 338.560; 190.937;  10.767;  30.029;  28.415;   1.584;   1.168;   0.975;  -0.326;   0.594;12912.746;;;;;;;;;;;;;;;;;
2017-07-12T20:23:42.404Z;0;3.8320e+01;1;     0.190;452063.812;  55586.387; 1;  55586.387; 455468.469; 458798.438;   6734.649;283;   1.185; 247.775;;; 338.470; 190.844;  10.783;  29.707;  28.084;   1.570;   1.165;   0.977;  -0.322;   0.587;12713.678;;;;;;;;;;;;;;;;;
2017-07-12T20:23:58.404Z;0;4.3620e+01;1;     0.187;452063.812;  59310.031; 1;  59310.031; 455937.875; 459715.656;   7651.860;283;   1.182; 247.686;;; 338.380; 190.752;  10.799;  29.383;  27.750;   1.557;   1.163;   0.979;  -0.318;   0.580;12515.877;;;;;;;;;;;;;;;;;
2017-07-12T20:24:14.939Z;0;4.4570e+01;1;     0.371;453736.312;  59954.453; 1;  59954.453; 457680.219; 461524.688;   7788.395;283;   1.179; 247.594;;; 338.287; 190.657;  10.816;  29.045;  27.404;   1.543;   1.160;   0.982;  -0.314;   0.572;12312.818;;;;;;;;;;;;;;;;;
2017-07-12T20:24:30.404Z;0;5.2990e+01;1;     0.373;453736.312;  65368.383; 1;  65368.383; 458420.844; 462965.969;   9229.675;283;   1.176; 247.509;;; 338.201; 190.569;  10.831;  28.728;  27.078;   1.530;   1.158;   0.984;  -0.311;   0.565;12124.166;;;;;;;;;;;;;;;;;
2017-07-12T20:24:46.939Z;0;4.8600e+01;1;     0.186;453736.312;  62602.922; 1;  62602.922; 458034.688; 462215.312;   8479.005;283;   1.174; 247.418;;; 338.110; 190.474;  10.847;  28.387;  26.728;   1.516;   1.155;   0.986;  -0.307;   0.558;11923.840;;;;;;;;;;;;;;;;;
2017-07-12T20:25:02.939Z;0;5.1860e+01;1;     0.188;454905.531;  64665.770; 1;  64665.770; 459478.719; 463919.312;   9013.770;283;   1.171; 247.331;;; 338.022; 190.384;  10.863;  28.055;  26.387;   1.503;   1.152;   0.988;  -0.303;   0.551;11731.372;;;;;;;;;;;;;;;;;
2017-07-12T20:25:18.939Z;0;4.1780e+01;1;     0.191;454905.531;  58041.895; 1;  58041.895; 458593.406; 462194.375;   7288.841;283;   1.168; 247.244;;; 337.934; 190.293;  10.879;  27.720;  26.044;   1.491;   1.150;   0.990;  -0.299;   0.543;11540.281;;;;;;;;;;;;;;;;;
2017-07-12T20:25:34.404Z;0;1.6850e+01;1;     0.377;454905.531;  36865.789; 1;  36865.789; 456396.906; 457873.781;   2968.256;283;   1.166; 247.160;;; 337.850; 190.206;  10.894;  27.396;  25.711;   1.479;   1.148;   0.992;  -0.295;   0.536;11356.909;;;;;;;;;;;;;;;;;
2017-07-12T20:25:50.403Z;0;1.7220e+01;1;     0.560;454905.531;  37266.344; 1;  37266.344; 456429.438; 457938.219;   3032.681;283;   1.163; 247.074;;; 337.763; 190.117;  10.910;  27.058;  25.364;   1.466;   1.145;   0.994;  -0.291;   0.529;11168.603;;;;;;;;;;;;;;;;;
2017-07-12T20:26:06.403Z;0;2.3820e+01;1;     0.575;455583.500;  43824.414; 1;  43824.414; 457686.500; 459760.875;   4177.344;283;   1.160; 246.988;;; 337.677; 190.028;  10.926;  26.718;  25.015;   1.454;   1.143;   0.996;  -0.288;   0.522;10981.727;;;;;;;;;;;;;;;;;
2017-07-12T20:26:22.938Z;0;2.0920e+01;1;     0.371;455583.500;  41072.996; 1;  41072.996; 457431.219; 459256.812;   3673.306;283;   1.158; 246.900;;; 337.588; 189.936;  10.942;  26.364;  24.653;   1.442;   1.140;   0.998;  -0.284;   0.514;10790.144;;;;;;;;;;;;;;;;;
2017-07-12T20:26:38.403Z;0;2.2320e+01;1;     0.566;455583.500;  42426.406; 1;  42426.406; 457554.750; 459500.812;   3917.294;283;   1.155; 246.817;;; 337.506; 189.850;  10.957;  26.032;  24.312;   1.431;   1.138;   1.000;  -0.280;   0.507;10612.397;;;;;;;;;;;;;;;;;
2017-07-12T20:26:54.938Z;0;4.6540e+01;1;     0.380;455583.500;  61264.379; 1;  61264.379; 459684.312; 463678.188;   8094.675;283;   1.153; 246.730;;; 337.418; 189.760;  10.973;  25.674;  23.946;   1.419;   1.136;   1.002;  -0.276;   0.499;10423.918;;;;;;;;;;;;;;;;;
2017-07-12T20:27:10.938Z;0;3.2940e+01;1;     0.563;455791.031;  51536.559; 1;  51536.559; 458695.406; 461545.656;   5754.614;283;   1.150; 246.645;;; 337.334; 189.672;  10.989;  25.327;  23.590;   1.408;   1.133;   1.003;  -0.272;   0.492;10243.098;;;;;;;;;;;;;;;;;
2017-07-12T20:27:26.938Z;0;2.3310e+01;1;     0.369;455791.031;  43353.367; 1;  43353.367; 457848.188; 459878.000;   4086.985;283;   1.148; 246.561;;; 337.250; 189.585;  11.005;  24.977;  23.232;   1.397;   1.131;   1.005;  -0.268;   0.485;10063.839;;;;;;;;;;;;;;;;;
2017-07-12T20:27:42.938Z;0;3.6700e+01;1;     0.186;455791.031;  54397.867; 1;  54397.867; 459025.688; 462193.375;   6402.359;283;   1.145; 246.477;;; 337.166; 189.498;  11.020;  24.625;  22.872;   1.386;   1.129;   1.007;  -0.264;   0.477; 9886.165;;;;;;;;;;;;;;;;;
2017-07-12T20:27:58.938Z;0;3.5140e+01;1;     0.380;455791.031;  53234.758; 1;  53234.758; 458889.312; 461926.062;   6135.050;283;   1.143; 246.393;;; 337.083; 189.412;  11.036;  24.272;  22.510;   1.375;   1.127;   1.009;  -0.260;   0.470; 9710.100;;;;;;;;;;;;;;;;;
2017-07-12T20:28:14.938Z;0;3.0870e+01;1;     0.554;455543.500;  49892.535; 1;  49892.535; 458267.531; 460943.844;   5400.365;283;   1.140; 246.310;;; 337.001; 189.326;  11.052;  23.917;  22.146;   1.365;   1.124;   1.011;  -0.256;   0.462; 9535.668;;;;;;;;;;;;;;;;;
2017-07-12T20:28:30.938Z;0;3.6700e+01;1;     0.186;455543.500;  54397.867; 1;  54397.867; 458779.906; 461949.219;   6405.743;283;   1.138; 246.227;;; 336.919; 189.240;  11.067;  23.559;  21.781;   1.354;   1.122;   1.012;  -0.252;   0.455; 9362.894;;;;;;;;;;;;;;;;;
2017-07-12T20:28:46.938Z;0;2.4870e+01;1;     0.187;455543.500;  44781.918; 1;  44781.918; 457739.312; 459904.000;   4360.519;283;   1.136; 246.145;;; 336.837; 189.155;  11.083;  23.200;  21.413;   1.344;   1.120;   1.014;  -0.248;   0.447; 9191.802;;;;;;;;;;;;;;;;;
2017-07-12T20:29:02.937Z;0;2.3820e+01;1;     0.382;454882.188;  43824.414; 1;  43824.414; 456988.375; 459065.844;   4183.668;283;   1.133; 246.062;;; 336.756; 189.070;  11.098;  22.839;  21.044;   1.334;   1.118;   1.016;  -0.244;   0.440; 9022.428;;;;;;;;;;;;;;;;;
2017-07-12T20:29:18.937Z;0;1.5130e+01;1;     0.189;454882.188;  34926.660; 1;  34926.660; 456221.062; 457548.281;   2666.105;283;   1.131; 245.980;;; 336.675; 188.986;  11.114;  22.477;  20.673;   1.325;   1.116;   1.017;  -0.240;   0.432; 8854.775;;;;;;;;;;;;;;;;;
2017-07-12T20:29:34.937Z;0;1.7600e+01;1;     0.369;454882.188;  37671.254; 1;  37671.254; 456439.375; 457980.844;   3098.652;283;   1.129; 245.899;;; 336.595; 188.901;  11.129;  22.112;  20.301;   1.315;   1.114;   1.019;  -0.236;   0.425; 8688.881;;;;;;;;;;;;;;;;;
2017-07-12T20:29:50.937Z;0;1.4490e+01;1;     0.370;454882.188;  34179.879; 1;  34179.879; 456164.500; 457436.125;   2553.939;283;   1.126; 245.817;;; 336.516; 188.818;  11.144;  21.746;  19.926;   1.306;   1.112;   1.020;  -0.232;   0.417; 8524.770;;;;;;;;;;;;;;;;;
2017-07-12T20:30:06.937Z;0;2.0920e+01;1;     0.558;453858.688;  41072.996; 1;  41072.996; 455713.406; 457545.750;   3687.043;283;   1.124; 245.736;;; 336.435; 188.734;  11.160;  21.377;  19.550;   1.296;   1.110;   1.022;  -0.228;   0.410; 8362.467;;;;;;;;;;;;;;;;;
2017-07-12T20:30:22.937Z;0;1.6850e+01;1;     0.377;453858.688;  36865.789; 1;  36865.789; 455353.500; 456833.719;   2975.013;283;   1.122; 245.655;;; 336.353; 188.650;  11.175;  21.007;  19.172;   1.287;   1.108;   1.023;  -0.224;   0.402; 8201.999;;;;;;;;;;;;;;;;;
2017-07-12T20:30:38.937Z;0;1.7980e+01;1;     0.382;453858.688;  38080.566; 1;  38080.566; 455453.469; 457031.625;   3172.930;283;   1.120; 245.574;;; 336.272; 188.566;  11.191;  20.635;  18.793;   1.279;   1.106;   1.025;  -0.220;   0.395; 8043.391;;;;;;;;;;;;;;;;;
2017-07-12T20:30:54.937Z;0;1.9160e+01;1;     0.370;453858.688;  39306.633; 1;  39306.633; 455557.594; 457237.719;   3379.011;283;   1.118; 245.494;;; 336.191; 188.482;  11.206;  20.262;  18.411;   1.270;   1.104;   1.026;  -0.216;   0.387; 7886.668;;;;;;;;;;;;;;;;;
2017-07-12T20:31:10.937Z;0;1.8630e+01;1;     0.564;452543.812;  38755.035; 1;  38755.035; 454200.250; 455838.750;   3294.921;283;   1.116; 245.413;;; 336.110; 188.399;  11.221;  19.887;  18.028;   1.262;   1.102;   1.027;  -0.212;   0.379; 7731.858;;;;;;;;;;;;;;;;;
2017-07-12T20:31:26.401Z;0;2.2700e+01;1;     0.562;452543.812;  42785.051; 1;  42785.051; 454561.844; 456553.344;   4009.522;283;   1.114; 245.336;;; 336.033; 188.318;  11.236;  19.522;  17.657;   1.254;   1.100;   1.029;  -0.208;   0.372; 7584.076;;;;;;;;;;;;;;;;;
2017-07-12T20:31:42.936Z;0;3.2780e+01;1;     0.187;452543.812;  51414.098; 1;  51414.098; 455455.062; 458311.531;   5767.713;283;   1.111; 245.254;;; 335.950; 188.233;  11.252;  19.131;  17.258;   1.245;   1.098;   1.030;  -0.204;   0.364; 7428.088;;;;;;;;;;;;;;;;;
2017-07-12T20:31:58.401Z;0;4.3490e+01;1;     0.375;452543.812;  59218.754; 1;  59218.754; 456401.969; 460164.688;   7620.882;283;   1.109; 245.177;;; 335.873; 188.153;  11.267;  18.763;  16.883;   1.238;   1.097;   1.031;  -0.200;   0.357; 7284.117;;;;;;;;;;;;;;;;;